Regional Weather Roundup
Issued by NWS

Home | Current Version | Previous Version | Graphics & Text | Print | Product List | Glossary On
Versions: 1 2 3 4 5 6 7 8 9 10 11 12 13 14 15 16 17 18 19 20 21 22 23 24 25 26 27 28 29 30 31 32 33 34 35 36 37 38 39 40 41 42 43 44 45 46 47 48 49 50
190
ASUS43 KLSX 040107
RWRMO

WEATHER SUMMARY FOR MISSOURI
NATIONAL WEATHER SERVICE SPRINGFIELD MO
800 PM CDT TUE MAY 03 2016

NOTE: "FAIR" INDICATES FEW OR NO CLOUDS BELOW 12,000 FEET WITH NO
       SIGNIFICANT WEATHER AND/OR OBSTRUCTIONS TO VISIBILITY.
       CURRENT SKY AND/OR WEATHER CONDITIONS ARE NOT AVAILABLE FOR
       CHILLICOTHE AND FARMINGTON.

MOZ001>031-035>038-043-044-053-054-040200-
...NORTHERN AND WESTERN MISSOURI...

CITY           SKY/WX    TMP DP  RH WIND       PRES   REMARKS
KANSAS CTY INT PTCLDY    63  42  46 NW5       29.94F
KANSAS C DTWN  CLEAR     67  41  38 W3        29.93S
LEE`S SUMMIT   CLEAR     65  41  41 W3        29.95F
ST JOSEPH      MOCLDY    64  44  48 W7        29.93F
CHILLICOTHE      N/A     64  43  46 CALM      29.93S
KIRKSVILLE     CLEAR     62  41  46 W6        29.90F

$$
MOZ066>068-077>081-088>096-101>105-040200-
...SOUTHWEST MISSOURI...

CITY           SKY/WX    TMP DP  RH WIND       PRES   REMARKS
SPRINGFIELD    CLEAR     61  40  45 W6        29.98F
JOPLIN         CLEAR     63  45  51 SW3       29.99F
BRANSON        CLEAR     59  39  47 NW5       30.00F

$$
MOZ032>034-039>042-045>050-055>058-069>072-040200-
...CENTRAL MISSOURI...

CITY           SKY/WX    TMP DP  RH WIND       PRES   REMARKS
COLUMBIA       PTCLDY    60  43  53 W6        29.93F
JEFFERSON CITY PTCLDY    63  40  42 W6        29.94S
ROLLA          CLEAR     55  40  56 W5        29.94F
SEDALIA        CLEAR     63  42  46 W3        29.95F
WHITEMAN AFB   PTCLDY    62  42  47 SW3       29.93F
WARRENSBURG    CLEAR     63  43  48 SW5       29.94S
OSAGE BEACH    CLEAR     59  37  44 CALM      29.96S

$$
MOZ051-052-059>065-040200-
...EAST CENTRAL MISSOURI...

CITY           SKY/WX    TMP DP  RH WIND       PRES   REMARKS
ST LOUIS INTL  PTCLDY    61  43  51 SW7       29.93F
SPIRIT OF STL  PTCLDY    58  46  64 S3        29.92F
ST CHARLES     CLEAR     59  48  67 SW7       29.91F

$$
MOZ072>076-082>087-097>100-106>115-040200-
...SOUTH CENTRAL AND SOUTHEAST MISSOURI...

CITY           SKY/WX    TMP DP  RH WIND       PRES   REMARKS
CAPE GIRARDEAU CLOUDY    58  47  66 W8        29.95S
FARMINGTON     CLEAR     57  45  64 CALM      29.96S
POPLAR BLUFF   PTCLDY    59  53  80 NE3       29.94S
WEST PLAINS    CLEAR     59  38  45 NW5       29.98S

$$



USA.gov is the U.S. government's official web portal to all federal, state and local government web resources and services.